sat.trackr.live / text

‹ back to catalog

HULIANWANG DIGUI-106

NORAD 66916 · 2025-285B

PAYLOAD ACTIVE UNKNOWN

§ Identity

Operator
Country
PRC
Launch date
2025-12-06
Launch site
WSC
Launch vehicle
Mass (kg)
RCS (m²)

External: N2YO · Heavens-Above · Gunter

§ Orbital elements

Epoch: 2026-09-20T10:05:05.862336Z

Period
108.33 min
Inclination
50.0057°
Eccentricity
0.0000121
Mean motion
13.29326051 rev/d
Perigee alt
1,149.2 km
Apogee alt
1,149.4 km
Semi-major
7,527.4 km
B*
3.1828e-5
RAAN
164.6268°
Arg perigee
230.2562°
Mean anomaly
129.8300°
Rev number
3,872

§ Raw data

HULIANWANG DIGUI-1061 66916U 25285B   26263.42020674 -.00000109  00000+0  31828-4 0  99902 66916  50.0057 164.6268 0000121 230.2562 129.8300 13.29326051 38729

JSON: /api/v1/satellites/66916 · /tle

For live sub-satellite position, see the globe view (requires WebGL).

§ Visibility from observer

Set your observer location to see the next 7 days of passes ≥ 10°. The values pass through the URL so the page stays shareable.

No JS? Fill the form by hand. The geolocation button needs JavaScript.